DW8215 Weather Reports


Display with metric or nautical units.
time (UTC)temp
F
wind
direction
speed
MPH
gust
MPH
rain 1hr
in
rain 24hr
in
rain mn
in
humidity
%
barometer
mb
20260906081557 55 5 0.0 0.0 0.00 0.00 0.00 99 1020.7
20260906074555 55 5 0.0 0.0 0.00 0.00 0.00 99 1020.8
20260906073054 55 5 0.0 0.0 0.00 0.00 0.00 99 1020.6
20260906071554 56 5 0.0 0.0 0.00 0.00 0.00 99 1020.8
20260906070056 56 5 0.0 0.0 0.00 0.00 0.00 99 1020.7
20260906064552 56 5 0.0 0.0 0.00 0.00 0.00 99 1020.7
20260906063048 56 5 0.0 0.0 0.00 0.00 0.00 99 1020.6
20260906061546 56 5 0.0 0.0 0.00 0.00 0.00 99 1020.5
20260906060043 57 5 0.0 0.0 0.00 0.00 0.00 99 1020.1
20260906054557 57 5 0.0 0.0 0.00 0.00 0.00 99 1019.9
20260906053041 57 5 0.0 0.0 0.00 0.00 0.00 99 1019.9
20260906051601 57 5 0.0 0.0 0.00 0.00 0.00 98 1019.9
20260906050044 58 5 0.0 0.0 0.00 0.00 0.00 98 1019.9
20260906044545 58 5 0.0 0.0 0.00 0.00 0.00 98 1019.9
20260906043035 58 5 0.0 0.0 0.00 0.00 0.00 98 1019.7
20260906041534 58 5 0.0 0.0 0.00 0.00 0.00 98 1019.7
20260906040057 59 5 0.0 0.0 0.00 0.00 0.00 98 1019.6
20260906034531 59 5 0.0 0.0 0.00 0.00 0.00 98 1019.6
20260906033044 59 5 0.0 0.0 0.00 0.00 0.00 98 1019.4
20260906031530 59 5 0.0 0.0 0.00 0.00 0.00 97 1019.3
20260906030030 60 5 0.0 0.0 0.00 0.00 0.00 97 1019.3
20260906024529 60 5 0.0 0.0 0.00 0.00 0.00 97 1019.1
20260906023028 61 5 0.0 0.0 0.00 0.00 0.00 96 1019.2
20260906021528 61 5 0.0 0.0 0.00 0.00 0.00 96 1019.2
20260906020028 62 5 0.0 0.0 0.00 0.00 0.00 96 1019.1
20260906014529 62 5 0.0 0.0 0.00 0.00 0.00 95 1018.9
20260906013030 63 5 0.0 0.0 0.00 0.00 0.00 95 1018.7
20260906011527 63 5 0.0 0.0 0.00 0.00 0.00 94 1018.6
20260906010026 64 5 0.0 0.0 0.00 0.00 0.00 94 1018.6
20260906004526 64 333 0.0 2.0 0.00 0.00 0.00 93 1018.6
20260906003025 65 343 0.0 0.0 0.00 0.00 0.00 93 1018.5
20260906001525 65 355 1.0 4.0 0.00 0.00 0.00 92 1018.5
20260906000024 66 355 2.0 5.0 0.00 0.00 0.00 91 1018.6
20260905234524 66 355 2.0 4.0 0.00 0.00 0.00 90 1018.6
20260905233023 67 360 2.0 5.0 0.00 0.00 0.00 89 1018.5
20260905231523 68 5 2.0 6.0 0.00 0.00 0.00 88 1018.6
20260905230021 68 360 4.0 6.0 0.00 0.00 0.00 87 1018.5
20260905224549 69 355 3.0 8.0 0.00 0.00 0.00 86 1018.8
20260905223022 69 5 2.0 6.0 0.00 0.00 0.00 86 1018.6
20260905221520 70 346 2.0 8.0 0.00 0.00 0.00 84 1018.6
20260905220019 71 340 3.0 6.0 0.00 0.00 0.00 83 1018.6
20260905214518 71 9 1.0 6.0 0.00 0.00 0.00 83 1018.5
20260905213018 71 333 2.0 6.0 0.00 0.00 0.00 82 1018.8
20260905211536 72 22 3.0 8.0 0.00 0.00 0.00 81 1018.6
20260905210023 72 355 2.0 8.0 0.00 0.00 0.00 83 1018.8
20260905204516 72 351 2.0 9.0 0.00 0.00 0.00 83 1018.8
20260905203017 72 355 3.0 6.0 0.00 0.00 0.00 80 1018.7
20260905201520 72 351 3.0 6.0 0.00 0.00 0.00 82 1018.7
20260905200022 72 24 3.0 8.0 0.00 0.00 0.00 82 1018.7
20260905194517 73 349 2.0 5.0 0.00 0.00 0.00 80 1018.7
20260905193013 73 10 3.0 5.0 0.00 0.00 0.00 81 1018.9
20260905191516 73 355 2.0 6.0 0.00 0.00 0.00 82 1019.1
20260905190012 72 22 0.0 5.0 0.00 0.00 0.00 84 1019.1
20260905184524 72 16 4.0 9.0 0.00 0.00 0.00 82 1019.1
20260905183011 72 40 1.0 6.0 0.00 0.00 0.00 84 1019.3
20260905181511 72 5 2.0 5.0 0.00 0.00 0.00 84 1019.4
20260905180009 71 14 2.0 6.0 0.00 0.00 0.00 84 1019.2
20260905174508 72 339 3.0 6.0 0.00 0.00 0.00 84 1019.4
20260905173008 73 19 1.0 4.0 0.00 0.00 0.00 85 1019.6
20260905171509 73 360 0.0 4.0 0.00 0.00 0.00 86 1019.8
20260905170003 72 5 0.0 2.0 0.00 0.00 0.00 87 1020.0
20260905164502 72 346 0.0 3.0 0.00 0.00 0.00 86 1019.7
20260905163108 71 11 0.0 0.0 0.00 0.00 0.00 89 1019.8
20260905161606 69 131 1.0 5.0 0.00 0.00 0.00 90 1020.0
20260905160052 68 138 2.0 4.0 0.00 0.00 0.00 91 1020.1
20260905154548 67 146 2.0 6.0 0.00 0.00 0.00 93 1020.0
20260905153044 65 165 0.0 4.0 0.00 0.00 0.00 96 1020.1
20260905151543 64 154 0.0 4.0 0.00 0.00 0.00 98 1020.1
20260905150040 63 121 0.0 5.0 0.00 0.00 0.00 99 1020.2
20260905144539 63 150 2.0 6.0 0.00 0.00 0.00 100 1020.1
20260905143037 62 140 2.0 5.0 0.00 0.00 0.00 100 1020.3
20260905141535 62 121 0.0 3.0 0.00 0.00 0.00 100 1020.3
20260905140035 61 317 0.0 0.0 0.00 0.00 0.00 100 1020.2
20260905134530 60 170 0.0 0.0 0.00 0.00 0.00 100 1019.9
20260905133035 60 105 0.0 0.0 0.00 0.00 0.00 100 1019.6
20260905131529 59 128 0.0 0.0 0.00 0.00 0.00 100 1019.6
20260905130025 59 37 0.0 0.0 0.00 0.00 0.00 100 1019.4
20260905124524 59 84 0.0 0.0 0.00 0.01 0.00 100 1019.1
20260905123022 59 140 0.0 0.0 0.00 0.01 0.00 100 1018.9
20260905121521 59 164 0.0 3.0 0.00 0.01 0.00 100 1018.9
20260905120019 59 128 1.0 4.0 0.00 0.01 0.00 100 1018.6
20260905114518 59 142 2.0 5.0 0.00 0.10 0.00 100 1018.5
20260905113017 59 355 0.0 0.0 0.00 0.10 0.00 100 1018.4
20260905111519 58 355 0.0 0.0 0.00 0.10 0.00 100 1018.5
20260905110015 58 355 0.0 0.0 0.00 0.10 0.00 100 1018.4
20260905104513 58 355 0.0 0.0 0.00 0.34 0.00 100 1018.3
20260905103015 58 355 0.0 0.0 0.00 0.34 0.00 99 1018.3
20260905101512 58 355 0.0 0.0 0.00 0.34 0.00 100 1018.3
20260905100014 58 355 0.0 0.0 0.00 0.34 0.00 100 1018.3
20260905094510 58 355 0.0 0.0 0.00 0.34 0.00 100 1018.2
20260905093009 58 355 0.0 0.0 0.00 0.34 0.00 100 1018.0
20260905091511 58 355 0.0 0.0 0.00 0.34 0.00 100 1018.1
20260905090010 58 355 0.0 0.0 0.00 0.34 0.00 100 1018.1
20260905084507 58 355 0.0 0.0 0.00 0.34 0.00 99 1018.2
20260905083006 58 355 0.0 0.0 0.00 0.34 0.00 100 1018.1